Time,TemperatureF,DewpointF,PressureIn,WindDirection,WindDirectionDegrees,WindSpeedMPH,WindSpeedGustMPH,Humidity,HourlyPrecipIn,Conditions,Clouds,dailyrainin,SoftwareType,DateUTC
2013-10-29 00:03:00,36.8,28.0,30.42,East,91,6.0,8.0,70,0.00,,,0.00,weatherlink.com 1.10,2013-10-29 05:03:00,
2013-10-29 00:18:00,36.7,28.0,30.43,East,98,4.0,6.0,71,0.00,,,0.00,weatherlink.com 1.10,2013-10-29 05:18:00,
2013-10-29 00:33:00,36.5,28.0,30.41,ENE,78,0.0,8.0,71,0.00,,,0.00,weatherlink.com 1.10,2013-10-29 05:33:00,
2013-10-29 00:48:00,36.5,28.0,30.41,SE,126,2.0,8.0,72,0.00,,,0.00,weatherlink.com 1.10,2013-10-29 05:48:00,
2013-10-29 01:04:00,36.3,28.0,30.41,East,95,3.0,7.0,72,0.00,,,0.00,weatherlink.com 1.10,2013-10-29 06:04:00,
2013-10-29 01:19:00,36.2,28.0,30.41,East,87,2.0,4.0,73,0.00,,,0.00,weatherlink.com 1.10,2013-10-29 06:19:00,
2013-10-29 01:34:00,36.3,28.0,30.41,East,90,6.0,8.0,73,0.00,,,0.00,weatherlink.com 1.10,2013-10-29 06:34:00,
2013-10-29 01:49:00,36.4,29.0,30.41,ENE,77,0.0,9.0,73,0.00,,,0.00,weatherlink.com 1.10,2013-10-29 06:49:00,
2013-10-29 02:04:00,36.4,29.0,30.41,ENE,75,0.0,6.0,73,0.00,,,0.00,weatherlink.com 1.10,2013-10-29 07:04:00,
2013-10-29 02:19:00,36.3,28.0,30.41,East,93,0.0,8.0,73,0.00,,,0.00,weatherlink.com 1.10,2013-10-29 07:19:00,
2013-10-29 02:34:00,36.2,29.0,30.40,ESE,109,3.0,8.0,74,0.00,,,0.00,weatherlink.com 1.10,2013-10-29 07:34:00,
2013-10-29 02:49:00,36.2,29.0,30.40,East,90,1.0,7.0,74,0.00,,,0.00,weatherlink.com 1.10,2013-10-29 07:49:00,
2013-10-29 03:04:00,36.2,29.0,30.40,ENE,72,1.0,8.0,74,0.00,,,0.00,weatherlink.com 1.10,2013-10-29 08:04:00,
2013-10-29 03:19:00,36.3,29.0,30.39,SE,134,0.0,8.0,74,0.00,,,0.00,weatherlink.com 1.10,2013-10-29 08:19:00,
2013-10-29 03:34:00,36.5,29.0,30.39,ESE,105,0.0,8.0,74,0.00,,,0.00,weatherlink.com 1.10,2013-10-29 08:34:00,
2013-10-29 03:49:00,36.7,29.0,30.38,ESE,120,0.0,12.0,74,0.00,,,0.00,weatherlink.com 1.10,2013-10-29 08:49:00,
2013-10-29 04:04:00,36.4,30.0,30.38,East,92,0.0,10.0,76,0.00,,,0.00,weatherlink.com 1.10,2013-10-29 09:04:00,
2013-10-29 04:19:00,36.4,30.0,30.37,ESE,115,4.0,9.0,76,0.00,,,0.00,weatherlink.com 1.10,2013-10-29 09:19:00,
2013-10-29 04:34:00,36.4,30.0,30.38,ESE,105,6.0,8.0,77,0.00,,,0.00,weatherlink.com 1.10,2013-10-29 09:34:00,
2013-10-29 04:49:00,36.4,30.0,30.37,ENE,69,1.0,8.0,77,0.00,,,0.00,weatherlink.com 1.10,2013-10-29 09:49:00,
2013-10-29 05:04:00,36.5,30.0,30.37,ENE,72,0.0,9.0,76,0.00,,,0.00,weatherlink.com 1.10,2013-10-29 10:04:00,
2013-10-29 05:19:00,36.5,30.0,30.37,East,83,0.0,6.0,76,0.00,,,0.00,weatherlink.com 1.10,2013-10-29 10:19:00,
2013-10-29 05:34:00,36.6,30.0,30.37,ENE,74,3.0,6.0,76,0.00,,,0.00,weatherlink.com 1.10,2013-10-29 10:34:00,
2013-10-29 05:49:00,36.7,30.0,30.37,ESE,115,3.0,8.0,76,0.00,,,0.00,weatherlink.com 1.10,2013-10-29 10:49:00,
2013-10-29 06:04:00,36.8,30.0,30.37,East,99,2.0,8.0,76,0.00,,,0.00,weatherlink.com 1.10,2013-10-29 11:04:00,
2013-10-29 06:19:00,36.8,30.0,30.36,ENE,77,2.0,9.0,76,0.00,,,0.00,weatherlink.com 1.10,2013-10-29 11:19:00,
2013-10-29 06:34:00,36.8,30.0,30.36,East,94,1.0,11.0,76,0.00,,,0.00,weatherlink.com 1.10,2013-10-29 11:34:00,
2013-10-29 06:49:00,36.7,30.0,30.35,ESE,110,2.0,12.0,76,0.00,,,0.00,weatherlink.com 1.10,2013-10-29 11:49:00,
2013-10-29 07:04:00,36.7,29.0,30.35,East,86,0.0,11.0,75,0.00,,,0.00,weatherlink.com 1.10,2013-10-29 12:04:00,
2013-10-29 07:19:00,36.7,30.0,30.36,East,92,0.0,9.0,76,0.00,,,0.00,weatherlink.com 1.10,2013-10-29 12:19:00,
2013-10-29 07:34:00,36.7,30.0,30.36,ENE,77,4.0,9.0,76,0.00,,,0.00,weatherlink.com 1.10,2013-10-29 12:34:00,
2013-10-29 07:50:00,36.7,30.0,30.36,ESE,116,0.0,9.0,76,0.00,,,0.00,weatherlink.com 1.10,2013-10-29 12:50:00,
2013-10-29 08:05:00,36.6,30.0,30.35,East,86,4.0,9.0,76,0.00,,,0.00,weatherlink.com 1.10,2013-10-29 13:05:00,
2013-10-29 08:20:00,36.8,30.0,30.35,East,93,2.0,11.0,76,0.00,,,0.00,weatherlink.com 1.10,2013-10-29 13:20:00,
2013-10-29 08:35:00,36.9,30.0,30.35,ESE,120,0.0,6.0,76,0.00,,,0.00,weatherlink.com 1.10,2013-10-29 13:35:00,
2013-10-29 08:50:00,37.2,30.0,30.35,East,94,1.0,10.0,75,0.00,,,0.00,weatherlink.com 1.10,2013-10-29 13:50:00,
2013-10-29 09:05:00,37.4,30.0,30.34,East,92,4.0,11.0,75,0.00,,,0.00,weatherlink.com 1.10,2013-10-29 14:05:00,
2013-10-29 09:20:00,37.8,31.0,30.34,East,98,6.0,13.0,75,0.00,,,0.00,weatherlink.com 1.10,2013-10-29 14:20:00,
2013-10-29 09:35:00,38.2,31.0,30.34,East,88,1.0,9.0,74,0.00,,,0.00,weatherlink.com 1.10,2013-10-29 14:35:00,
2013-10-29 09:50:00,38.7,31.0,30.34,East,82,3.0,10.0,74,0.00,,,0.00,weatherlink.com 1.10,2013-10-29 14:50:00,
2013-10-29 10:05:00,39.3,31.0,30.34,East,95,2.0,13.0,73,0.00,,,0.00,weatherlink.com 1.10,2013-10-29 15:05:00,
2013-10-29 10:20:00,40.0,32.0,30.32,ESE,118,0.0,12.0,73,0.00,,,0.00,weatherlink.com 1.10,2013-10-29 15:20:00,
2013-10-29 10:35:00,41.0,33.0,30.32,ESE,107,6.0,9.0,72,0.00,,,0.00,weatherlink.com 1.10,2013-10-29 15:35:00,
2013-10-29 10:50:00,41.8,33.0,30.30,ENE,74,3.0,11.0,71,0.00,,,0.00,weatherlink.com 1.10,2013-10-29 15:50:00,
2013-10-29 11:05:00,42.7,34.0,30.30,ENE,74,4.0,13.0,70,0.00,,,0.00,weatherlink.com 1.10,2013-10-29 16:05:00,
2013-10-29 11:20:00,44.1,34.0,30.29,SSE,151,0.0,12.0,68,0.00,,,0.00,weatherlink.com 1.10,2013-10-29 16:20:00,
2013-10-29 11:35:00,43.4,34.0,30.28,ESE,102,4.0,12.0,69,0.00,,,0.00,weatherlink.com 1.10,2013-10-29 16:35:00,
2013-10-29 11:50:00,44.6,35.0,30.29,South,177,3.0,10.0,69,0.00,,,0.00,weatherlink.com 1.10,2013-10-29 16:50:00,
2013-10-29 12:05:00,45.6,35.0,30.28,ESE,122,2.0,9.0,66,0.00,,,0.00,weatherlink.com 1.10,2013-10-29 17:05:00,
2013-10-29 12:20:00,46.0,35.0,30.27,SSW,200,2.0,9.0,65,0.00,,,0.00,weatherlink.com 1.10,2013-10-29 17:20:00,
2013-10-29 12:35:00,47.0,36.0,30.27,ESE,115,2.0,6.0,66,0.00,,,0.00,weatherlink.com 1.10,2013-10-29 17:35:00,
2013-10-29 12:51:00,48.1,36.0,30.26,ENE,76,1.0,7.0,64,0.00,,,0.00,weatherlink.com 1.10,2013-10-29 17:51:00,
2013-10-29 13:06:00,49.6,37.0,30.24,ENE,69,3.0,9.0,62,0.00,,,0.00,weatherlink.com 1.10,2013-10-29 18:06:00,
2013-10-29 13:21:00,51.7,38.0,30.23,East,86,1.0,8.0,59,0.00,,,0.00,weatherlink.com 1.10,2013-10-29 18:21:00,
2013-10-29 13:36:00,53.5,38.0,30.22,ENE,69,1.0,7.0,57,0.00,,,0.00,weatherlink.com 1.10,2013-10-29 18:36:00,
2013-10-29 13:51:00,52.9,37.0,30.21,East,81,0.0,7.0,56,0.00,,,0.00,weatherlink.com 1.10,2013-10-29 18:51:00,
2013-10-29 14:06:00,52.3,39.0,30.21,SSE,161,0.0,9.0,60,0.00,,,0.00,weatherlink.com 1.10,2013-10-29 19:06:00,
2013-10-29 14:21:00,54.5,40.0,30.20,SW,218,1.0,11.0,58,0.00,,,0.00,weatherlink.com 1.10,2013-10-29 19:21:00,
2013-10-29 14:36:00,55.4,40.0,30.20,East,88,1.0,6.0,56,0.00,,,0.00,weatherlink.com 1.10,2013-10-29 19:36:00,
2013-10-29 14:51:00,54.0,39.0,30.20,ESE,123,0.0,6.0,58,0.00,,,0.00,weatherlink.com 1.10,2013-10-29 19:51:00,
2013-10-29 15:06:00,53.0,39.0,30.19,ENE,67,0.0,7.0,60,0.00,,,0.00,weatherlink.com 1.10,2013-10-29 20:06:00,
2013-10-29 15:21:00,53.2,39.0,30.18,ESE,113,0.0,4.0,60,0.00,,,0.00,weatherlink.com 1.10,2013-10-29 20:21:00,
2013-10-29 15:36:00,53.2,39.0,30.18,East,88,2.0,7.0,59,0.00,,,0.00,weatherlink.com 1.10,2013-10-29 20:36:00,
2013-10-29 15:51:00,53.6,39.0,30.18,South,184,0.0,4.0,59,0.00,,,0.00,weatherlink.com 1.10,2013-10-29 20:51:00,
2013-10-29 16:06:00,54.3,40.0,30.17,East,83,0.0,4.0,59,0.00,,,0.00,weatherlink.com 1.10,2013-10-29 21:06:00,
2013-10-29 16:21:00,54.4,40.0,30.17,East,87,0.0,6.0,59,0.00,,,0.00,weatherlink.com 1.10,2013-10-29 21:21:00,
2013-10-29 16:36:00,54.5,40.0,30.16,East,91,0.0,4.0,59,0.00,,,0.00,weatherlink.com 1.10,2013-10-29 21:36:00,
2013-10-29 16:51:00,54.5,41.0,30.16,ENE,69,3.0,6.0,60,0.00,,,0.00,weatherlink.com 1.10,2013-10-29 21:51:00,
2013-10-29 17:06:00,54.6,41.0,30.15,East,88,0.0,2.0,61,0.00,,,0.00,weatherlink.com 1.10,2013-10-29 22:06:00,
2013-10-29 17:21:00,54.3,42.0,30.15,SSW,194,0.0,3.0,63,0.00,,,0.00,weatherlink.com 1.10,2013-10-29 22:21:00,
2013-10-29 17:36:00,53.6,42.0,30.14,East,96,0.0,6.0,66,0.00,,,0.00,weatherlink.com 1.10,2013-10-29 22:36:00,
2013-10-29 17:51:00,52.9,42.0,30.14,SE,134,1.0,3.0,66,0.00,,,0.00,weatherlink.com 1.10,2013-10-29 22:51:00,
2013-10-29 18:06:00,52.6,41.0,30.13,ESE,111,1.0,4.0,66,0.00,,,0.00,weatherlink.com 1.10,2013-10-29 23:06:00,
2013-10-29 18:21:00,52.4,41.0,30.13,East,94,0.0,7.0,66,0.00,,,0.00,weatherlink.com 1.10,2013-10-29 23:21:00,
2013-10-29 18:37:00,52.4,42.0,30.13,ESE,111,0.0,8.0,67,0.00,,,0.00,weatherlink.com 1.10,2013-10-29 23:37:00,
2013-10-29 18:51:00,52.3,42.0,30.14,East,91,1.0,6.0,67,0.00,,,0.00,weatherlink.com 1.10,2013-10-29 23:51:00,
2013-10-29 19:06:00,52.3,42.0,30.14,East,87,1.0,6.0,67,0.00,,,0.00,weatherlink.com 1.10,2013-10-30 00:06:00,
2013-10-29 19:21:00,52.2,41.0,30.15,ESE,113,0.0,6.0,66,0.00,,,0.00,weatherlink.com 1.10,2013-10-30 00:21:00,
2013-10-29 19:36:00,52.2,41.0,30.14,ENE,65,0.0,3.0,65,0.00,,,0.00,weatherlink.com 1.10,2013-10-30 00:36:00,
2013-10-29 19:51:00,52.0,40.0,30.14,East,82,0.0,4.0,65,0.00,,,0.00,weatherlink.com 1.10,2013-10-30 00:51:00,
2013-10-29 20:06:00,51.5,39.0,30.14,ESE,113,3.0,9.0,63,0.00,,,0.00,weatherlink.com 1.10,2013-10-30 01:06:00,
2013-10-29 20:21:00,51.0,41.0,30.15,SW,227,1.0,7.0,69,0.00,,,0.00,weatherlink.com 1.10,2013-10-30 01:21:00,
2013-10-29 20:36:00,50.2,40.0,30.14,East,87,0.0,6.0,69,0.00,,,0.00,weatherlink.com 1.10,2013-10-30 01:36:00,
2013-10-29 20:51:00,50.0,41.0,30.14,ESE,123,0.0,6.0,71,0.00,,,0.00,weatherlink.com 1.10,2013-10-30 01:51:00,
2013-10-29 21:06:00,48.6,43.0,30.15,ESE,111,0.0,6.0,80,0.00,,,0.00,weatherlink.com 1.10,2013-10-30 02:06:00,
2013-10-29 21:21:00,47.2,43.0,30.14,South,171,0.0,8.0,85,0.00,,,0.00,weatherlink.com 1.10,2013-10-30 02:21:00,
2013-10-29 21:36:00,46.8,43.0,30.13,ENE,72,0.0,5.0,86,0.00,,,0.00,weatherlink.com 1.10,2013-10-30 02:36:00,
2013-10-29 21:51:00,46.7,43.0,30.12,SSE,159,0.0,8.0,87,0.00,,,0.00,weatherlink.com 1.10,2013-10-30 02:51:00,
2013-10-29 22:06:00,46.8,43.0,30.12,ESE,102,0.0,5.0,86,0.00,,,0.00,weatherlink.com 1.10,2013-10-30 03:06:00,
2013-10-29 22:21:00,47.0,43.0,30.13,SSE,154,0.0,4.0,85,0.00,,,0.00,weatherlink.com 1.10,2013-10-30 03:21:00,
2013-10-29 22:37:00,47.4,42.0,30.13,East,95,0.0,6.0,82,0.00,,,0.00,weatherlink.com 1.10,2013-10-30 03:37:00,
2013-10-29 22:52:00,47.8,42.0,30.12,East,88,0.0,7.0,79,0.00,,,0.00,weatherlink.com 1.10,2013-10-30 03:52:00,
2013-10-29 23:07:00,48.1,41.0,30.12,SSE,164,2.0,4.0,77,0.00,,,0.00,weatherlink.com 1.10,2013-10-30 04:07:00,
2013-10-29 23:22:00,48.1,41.0,30.12,SE,129,1.0,3.0,77,0.00,,,0.00,weatherlink.com 1.10,2013-10-30 04:22:00,
2013-10-29 23:37:00,48.0,41.0,30.12,East,90,0.0,3.0,77,0.00,,,0.00,weatherlink.com 1.10,2013-10-30 04:37:00,
2013-10-29 23:52:00,48.0,41.0,30.11,East,90,0.0,3.0,77,0.00,,,0.00,weatherlink.com 1.10,2013-10-30 04:52:00,